Location: Izdebno
(52.6670°N, 16.2170°E)
Time: 23:23:02
(UTC+02:00)

Transit 2A - Pass Details

Date: 01 May 2024
Orbit: 594 x 958 km, 66.7° (Epoch: 23 May)

Event Time Altitude Azimuth Distance (km) Brightness Sun altitude
Exits shadow 03:50:53 - 169° (S) 2,697 8.5 -12.0°
Reaches altitude 10° 03:53:06 10° 153° (SSE) 2,004 8.0 -11.8°
Maximum altitude 03:56:15 19° 108° (ESE) 1,554 7.9 -11.4°
Drops below altitude 10° 03:59:35 10° 64° (ENE) 2,138 9.6 -11.1°
Sets 04:02:36 0° 48° (NE) 3,131 11.5 -10.7°
